Regional Weather Roundup
Issued by NWS

Home | Current Version | Previous Version | Graphics & Text | Print | Product List | Glossary On
Versions: 1 2 3 4 5 6 7 8 9 10 11 12 13 14 15 16 17 18 19 20 21 22 23 24 25 26 27 28 29 30 31 32 33 34 35 36 37 38 39 40 41 42 43 44 45 46 47 48 49 50
444
ASUS43 KDTX 090401
RWRMI
MICHIGAN HOURLY REGIONAL WEATHER ROUNDUP
NATIONAL WEATHER SERVICE DETROIT/PONTIAC MI
1100 PM EST MON FEB 08 2016

NOTE: "FAIR" INDICATES FEW OR NO CLOUDS BELOW 12,000 FEET WITH NO
SIGNIFICANT WEATHER AND/OR OBSTRUCTION TO VISIBILITY.

MIZ047>049-052>055-059>063-066>070-074>076-081>083-090500-
SOUTHEAST LOWER MICHIGAN

CITY           SKY/WX    TMP DP  RH WIND       PRES   REMARKS
ADRIAN         CLOUDY    32  28  85 NW12      29.60F WCI  23
ALMA           CLOUDY    35  28  75 W6        29.58S WCI  29
ANN ARBOR      MOCLDY    32  28  85 W10       29.57F WCI  24
BAD AXE        LGT SNOW  33  33  98 NW8       29.51F WCI  26
CARO           CLOUDY    34  30  86 NW3       29.53F
DETROIT CITY   CLOUDY    36  27  69 W6        29.56F WCI  31
DETROIT        CLOUDY    34  28  79 W9        29.58F WCI  27
FLINT          CLOUDY    36  28  73 W9        29.56F WCI  29
GROSSE ILE     CLOUDY    34  30  86 CALM      29.57S
HILLSDALE      CLOUDY    30  28  91 W16       29.59F WCI  18
HOWELL         CLOUDY    32  31  94 W9        29.56F WCI  25

CITY           SKY/WX    TMP DP  RH WIND       PRES   REMARKS
JACKSON        CLOUDY    32  27  81 W14       29.58F WCI  22
LAMBERTVILLE   CLOUDY    33  28  85 W5        29.61F WCI  28
LANSING        CLOUDY    33  29  85 W9        29.59F WCI  25
LAPEER         CLOUDY    34  30  85 W9        29.54F WCI  27
MASON          CLOUDY    32  30  92 W6        29.58F WCI  27
MONROE         CLOUDY    33  29  86 W8        29.59S WCI  26
MT. CLEMENS    CLOUDY    37  29  74 W8        29.54F WCI  30
PONTIAC        FLURRIES  34  28  79 W12       29.54F WCI  25
PORT HOPE        N/A     33  33 100 NW3       29.50F
PORT HURON     LGT SNOW  34  32  93 W6        29.54F WCI  29
TRI CITIES     CLOUDY    36  28  73 NW7       29.56F WCI  30
MIDLAND        FLURRIES  35  29  81 NW9       29.56S WCI  27
TROY           CLOUDY    37  28  71 W7        29.57F WCI  31
SAGINAW HB     CLOUDY    36  30  80 NW7       29.55F WCI  30
$$
MIZ043>046-050>051-056>058-064>065-071>073-077>080-090500-
SOUTHWEST LOWER MICHIGAN

CITY           SKY/WX    TMP DP  RH WIND       PRES   REMARKS
BATTLE CREEK   CLOUDY    30  27  88 W12       29.61F WCI  20
BENTON HARBOR  LGT SNOW  30  26  85 W18       29.67F FOG     WCI  18
BIG RAPIDS     CLOUDY    32  30  92 N13       29.58S WCI  22
COLDWATER      LGT SNOW  29  29  97 W13       29.62F WCI  19
FREMONT        CLOUDY    32  31  96 N10       29.60F WCI  24
HOLLAND        CLOUDY    32  30  92 CALM      29.61F
GRAND RAPIDS   CLOUDY    33  31  92 W7        29.60F FOG     WCI  27
IONIA          CLOUDY    32  30  92 W9        29.58F WCI  24
KALAMAZOO      CLOUDY    30  26  85 W8        29.63F WCI  22
LUDINGTON      CLOUDY    27  25  90 N14G25    29.67R WCI  16
MARSHALL       CLOUDY    31  28  90 W10       29.60F WCI  22
MOUNT PLEASANT CLOUDY    35  29  78 NW5       29.56F WCI  31
MUSKEGON       CLOUDY    33  28  81 N13       29.62F WCI  24
SOUTH HAVEN    LGT SNOW  31  30  95 W10G18    29.64F WCI  22
$$
MIZ016>042-090500-
NORTHERN LOWER MICHIGAN

CITY           SKY/WX    TMP DP  RH WIND       PRES   REMARKS
ALPENA         LGT SNOW  33  31  92 N13       29.57F FOG     WCI  24
BEAVER ISLAND  CLOUDY    24  19  83 NW12G17   29.66F WCI  12
BELLAIRE       CLOUDY    28  24  86 N6        29.65F WCI  22
CADILLAC       CLOUDY    28  26  92 N8        29.58F WCI  20
CHARLEVOIX     CLOUDY    26  24  89 N12       29.68S WCI  16
FRANKFORT      CLOUDY    26  22  84 N10G17    29.68S WCI  16
GAYLORD        CLOUDY    28  26  92 VRB6      29.58S WCI  22
GRAYLING       CLOUDY    29  27  90 NW10G18   29.59S WCI  20
HARBOR SPRINGS CLOUDY    27  23  87 N3        29.63F
HOUGHTON LAKE  CLOUDY    30  28  92 NW14      29.57S WCI  19
MANISTEE       CLOUDY    27  19  74 N14G21    29.68R WCI  15
OSCODA         LGT RAIN  33  32  96 NW8       29.53F WCI  26
PELLSTON       CLOUDY    26  22  84 NW12      29.64S WCI  16
ROGERS CITY    CLOUDY    31  29  92 NW10G17   29.60F FOG     WCI  22
TRAVERSE CITY  CLOUDY    28  22  78 N9        29.65S WCI  19
$$
MIZ007>008-015-090500-
EASTERN UPPER MICHIGAN

CITY           SKY/WX    TMP DP  RH WIND       PRES   REMARKS
KINROSS        CLOUDY    27  27 100 NW12      29.62S WCI  16
MACKINAC ISLAN CLOUDY    26  26  99 N8        29.62F WCI  18
NEWBERRY       CLOUDY    23  19  87 NW9G16    29.64F WCI  13
S. S. MARIE    CLOUDY    28  24  85 NW15      29.62F WCI  16
$$
MIZ004>006-011>014-085-090500-
CENTRAL UPPER MICHIGAN

CITY           SKY/WX    TMP DP  RH WIND       PRES   REMARKS
MANISTIQUE     CLOUDY    19  13  77 NW13      29.68F WCI   7
ESCANABA       PTCLDY    16   9  73 NW9       29.74R WCI   4
MENOMINEE      CLOUDY    18   9  68 N5        29.75R WCI  11
SAWYER-GWINN   LGT SNOW  12   9  87 N9        29.70S WCI  -1
$$
MIZ001>003-009>011-084-090500-
WESTERN UPPER MICHIGAN

CITY           SKY/WX    TMP DP  RH WIND       PRES   REMARKS
IRON MOUNTAIN  MOCLDY    14   6  70 NW14      29.72S WCI  -1
HOUGHTON       LGT SNOW  12   6  77 N15       29.77S WCI  -4
COPPER HARBOR    N/A     17  13  84 N26G32    29.77S WCI  -2
IRONWOOD       CLOUDY    12  10  92 NW13G18   29.79F WCI  -3
$$

ABBREVIATIONS USED IN REMARKS
   TC - TEMPERATURE IN CELSIUS
  WCI - WIND CHILL INDEX
   HX - HEAT INDEX
  VSB - VISIBILITY





USA.gov is the U.S. government's official web portal to all federal, state and local government web resources and services.